Theta_e
324 323 324 325 323 322 324 322 319 321 324 322 318 317 320 320 318 322 325 322 324 330 333 339 341 343 347 348 347 349 350 351 353 355 356 356 356 355 354 354 354 353 353 352 352 352 354 355 355 354 354 353 352 351 350 348 348 350 350 347 345 346 348
325 325 325 326 325 325 323 320 321 325 326 324 322 320 321 320 319 322 322 319 321 323 327 338 342 341 344 344 345 348 349 348 349 353 356 357 358 357 356 356 355 354 354 353 352 352 353 354 355 354 353 353 351 348 348 350 350 351 352 350 348 348 349
325 327 325 323 325 327 326 324 326 326 322 322 323 321 320 320 319 320 320 320 320 321 325 334 338 339 341 343 344 345 347 348 348 350 355 357 358 358 358 357 356 356 355 354 353 352 353 354 354 352 350 351 351 348 349 351 352 353 353 352 351 351 350
325 325 324 322 322 326 328 328 328 326 324 323 323 322 321 319 318 319 319 319 321 324 328 332 336 339 341 342 344 345 346 348 348 349 352 355 357 358 358 357 356 356 355 354 353 353 354 353 352 349 347 349 351 350 350 351 352 353 353 352 352 351 351
323 322 323 323 324 326 325 324 324 325 326 325 323 323 321 319 319 319 319 318 320 327 333 334 338 342 342 344 346 346 347 349 350 352 353 354 356 357 357 356 355 355 354 354 354 354 354 352 350 349 348 349 351 350 351 352 351 351 352 352 352 352 351
320 322 326 327 327 328 326 325 324 324 325 323 321 322 323 322 319 319 320 318 320 329 336 336 339 341 343 346 346 345 349 351 352 354 353 354 355 355 355 356 355 355 354 354 354 355 354 352 351 351 350 351 352 350 351 352 352 351 351 352 352 352 352
322 326 329 327 328 329 327 327 327 327 327 323 319 320 322 322 321 321 321 318 322 334 339 338 342 344 345 346 345 346 349 351 353 354 353 353 354 354 354 354 354 355 355 354 354 354 353 352 352 352 351 351 352 352 351 353 353 352 351 351 352 352 350
325 327 328 328 328 329 327 327 328 327 326 325 324 324 324 322 320 322 321 318 324 337 344 343 347 348 346 344 344 345 348 351 353 353 352 353 353 353 354 354 353 354 354 354 354 354 353 352 352 352 352 352 352 353 353 353 353 352 350 350 352 351 348
322 323 324 325 326 327 325 328 331 329 328 329 328 327 326 321 320 322 320 318 323 337 345 345 346 347 346 345 344 346 349 351 351 351 351 351 350 351 353 354 353 353 353 352 352 353 353 352 352 352 353 353 353 353 353 354 353 352 350 350 351 351 348
318 318 320 321 323 325 325 329 332 330 329 330 327 324 323 321 323 324 320 318 324 335 341 341 343 344 344 344 345 346 349 349 349 350 350 350 351 351 352 353 352 352 351 351 352 352 352 352 352 351 351 352 353 353 353 352 352 351 351 350 350 350 349
319 320 323 325 325 323 323 326 329 329 329 329 328 324 321 322 325 324 322 323 325 328 335 337 339 340 341 343 345 345 347 348 349 351 350 350 351 351 351 351 351 350 350 350 351 352 352 352 352 351 350 350 351 352 351 351 351 352 351 350 349 349 347
323 324 326 327 324 322 322 324 326 328 329 330 327 324 324 328 324 320 325 330 325 325 331 333 333 336 338 340 342 344 347 349 350 351 350 350 351 350 350 350 349 349 349 349 350 351 351 352 351 351 351 350 350 349 349 348 348 350 352 352 351 349 347
324 325 325 325 325 324 324 324 325 327 329 329 326 325 328 330 324 320 327 331 327 327 330 331 333 335 337 341 345 346 348 349 349 350 350 351 351 350 350 350 348 348 348 348 349 349 349 350 350 351 352 351 351 350 350 349 347 347 349 351 352 353 351
324 324 324 325 325 324 324 324 325 327 328 328 327 326 328 329 325 326 330 331 329 329 330 334 340 341 342 345 346 346 348 349 349 349 350 351 351 350 350 349 347 346 346 346 347 347 347 348 348 350 350 351 351 351 352 351 349 348 346 346 348 351 352
322 324 324 324 324 323 323 323 324 325 325 326 326 326 326 327 326 327 329 329 330 334 338 343 346 345 345 344 344 348 350 349 348 348 349 351 352 351 350 348 347 346 345 345 345 345 346 346 347 348 348 349 350 351 351 351 351 351 349 347 347 348 350
319 322 323 322 323 323 321 321 323 324 323 323 324 325 327 326 325 326 327 325 328 337 344 346 346 345 344 343 345 348 348 347 347 348 349 351 351 351 349 347 346 345 344 344 344 344 344 345 345 346 346 347 348 349 350 350 351 351 351 351 351 350 351
318 322 323 322 322 320 318 321 324 324 324 324 324 326 327 328 327 325 325 327 333 341 344 343 344 344 343 344 346 347 346 347 347 347 348 349 350 350 348 345 344 344 343 343 343 343 344 344 344 345 345 345 346 347 348 348 350 350 350 351 351 351 352
317 321 324 322 320 317 319 327 329 327 325 325 325 326 327 330 330 329 331 335 340 341 340 340 343 344 345 347 347 346 346 347 348 347 347 348 349 349 347 344 343 343 342 342 342 342 343 343 343 343 343 343 343 344 344 345 347 348 349 350 350 351 352
318 322 323 319 317 319 325 332 333 329 328 327 327 327 328 330 332 335 336 336 338 341 343 344 345 347 348 348 347 346 342 342 347 348 347 347 348 347 344 343 342 342 342 342 342 342 342 341 341 341 341 341 341 342 342 343 343 345 347 349 349 350 351
321 321 319 317 320 325 330 333 333 331 329 328 327 326 327 329 332 335 335 337 342 347 348 349 349 349 348 346 346 344 337 334 343 347 347 346 345 344 343 342 342 342 341 340 341 341 340 339 339 339 339 340 340 340 341 342 342 343 344 346 348 349 350
321 318 317 319 322 325 327 330 331 330 328 328 327 325 326 330 333 334 337 340 344 347 348 348 348 347 345 343 343 340 331 331 340 344 345 344 343 342 342 341 341 341 340 340 340 339 338 338 339 339 339 339 339 340 341 341 342 342 343 343 345 347 348
322 319 317 319 320 320 324 326 328 329 328 329 330 326 325 331 334 335 338 341 344 347 348 347 347 346 341 337 339 339 331 332 339 342 343 342 342 341 341 340 340 339 339 339 338 338 338 338 338 338 338 338 339 339 340 341 341 342 342 342 343 344 346
321 319 317 318 318 320 325 327 327 330 331 331 331 324 322 330 336 336 338 342 344 346 348 347 348 343 333 328 338 340 334 334 339 342 343 342 341 340 340 339 339 338 338 338 337 338 338 338 338 338 338 338 339 339 339 340 340 341 341 342 342 342 343
320 320 318 318 319 324 331 332 330 331 332 332 327 320 321 331 336 335 337 342 344 345 348 348 345 338 330 333 340 340 338 339 342 343 343 341 340 339 339 338 338 337 337 337 337 337 337 337 338 337 337 338 338 338 339 339 340 342 342 342 342 342 342
319 320 319 318 320 327 334 334 331 332 333 328 322 320 326 334 336 334 336 341 344 347 348 345 341 337 337 338 340 339 340 342 343 342 341 340 339 339 338 337 337 336 336 337 336 336 337 337 337 336 337 338 338 338 338 339 341 342 342 343 343 343 343
319 320 319 318 321 327 332 333 334 334 328 322 323 329 335 335 335 337 338 339 344 347 346 341 338 338 337 337 340 341 340 341 342 341 340 339 339 338 337 337 336 335 336 336 336 336 336 336 336 337 338 338 338 338 339 339 340 341 341 342 342 343 344
321 320 320 318 320 327 332 333 334 333 327 326 330 336 338 337 337 337 338 341 345 344 342 339 338 338 337 338 341 341 340 341 341 340 339 339 338 337 336 335 335 335 335 335 335 336 336 335 336 337 338 338 338 339 339 340 340 340 341 341 342 343 345
322 320 323 324 326 331 333 331 332 333 332 333 334 334 335 339 339 336 338 344 344 340 338 338 338 338 339 341 342 342 340 340 340 339 339 338 337 336 335 335 334 334 334 334 335 335 336 336 336 337 338 338 339 339 339 340 340 340 341 342 342 344 345
326 325 326 329 331 333 332 331 335 337 334 333 335 333 333 338 339 337 339 343 341 337 337 337 337 338 341 342 342 342 341 340 339 339 338 337 336 335 334 334 334 334 334 334 335 335 336 336 336 337 337 338 339 339 339 339 339 339 339 341 342 344 345
329 329 329 330 332 334 332 331 334 336 334 333 335 334 332 336 340 338 337 337 337 337 338 338 338 340 342 342 342 341 341 340 338 338 337 336 335 334 334 333 333 333 334 334 335 336 336 336 336 336 336 337 338 338 337 337 337 338 338 340 342 344 345
328 329 331 333 333 335 335 333 332 333 333 331 335 339 336 336 338 338 337 337 337 337 338 339 340 341 342 341 341 340 339 339 338 337 336 335 334 334 333 333 333 333 334 334 335 335 335 335 335 334 335 337 337 337 337 336 336 337 337 338 340 342 344
327 328 330 331 331 333 336 334 332 334 333 330 333 338 338 337 338 338 338 338 338 337 338 339 342 343 342 340 339 339 339 338 337 336 335 334 334 333 333 333 333 334 334 334 334 334 334 334 334 334 335 337 337 336 336 335 335 336 336 337 338 340 341
329 329 329 330 330 331 334 335 335 336 336 334 333 334 335 337 336 333 333 336 338 339 340 341 343 342 340 338 339 339 338 337 336 336 335 334 333 333 333 333 333 333 333 334 334 334 333 333 334 334 336 336 336 335 334 334 335 335 334 335 336 337 338
329 329 331 332 332 331 333 336 337 335 334 332 333 334 336 337 334 330 329 332 335 338 338 340 342 341 337 336 338 338 338 337 336 335 334 333 332 333 332 332 332 333 333 333 334 333 333 333 333 334 335 335 335 335 334 333 333 333 333 333 333 333 334
329 329 331 332 333 333 333 334 336 336 334 332 334 336 337 337 334 332 330 330 332 333 333 335 340 340 335 333 336 338 337 337 336 335 333 332 332 332 332 331 332 332 332 332 334 333 333 333 333 334 334 334 334 334 334 333 332 331 331 331 330 331 331
329 328 330 331 332 332 332 333 334 337 337 335 334 336 338 339 338 337 336 335 334 332 329 331 336 338 335 334 337 338 337 336 335 334 332 332 331 331 331 331 331 331 331 332 333 333 332 332 333 334 333 333 333 333 333 333 333 332 331 330 330 330 329
328 328 330 331 331 332 332 331 332 337 338 338 338 340 339 339 340 340 338 336 334 332 331 329 331 334 336 337 338 338 336 336 335 333 331 331 331 330 329 329 329 330 330 331 332 333 332 332 333 332 331 332 333 333 333 332 333 333 333 331 329 328 327
Wind_Speed
5 6 4 5 6 2 4 5 5 0 3 4 4 2 2 5 5 1 1 5 3 2 4 4 3 4 4 4 3 3 4 3 3 3 2 0 2 4 8 12 14 16 18 20 19 19 18 18 18 19 19 20 22 22 22 20 19 19 19 19 20 22 22
5 3 4 6 4 3 2 3 4 4 1 4 4 2 2 4 5 1 1 4 3 1 1 3 4 5 4 4 2 4 2 1 3 4 4 3 1 1 4 8 11 13 15 18 19 19 18 18 18 19 20 21 21 21 21 21 20 20 20 19 20 21 21
7 5 6 6 5 5 4 1 3 3 2 2 2 3 3 3 3 1 0 3 3 2 1 1 3 4 3 3 2 2 2 2 3 3 5 4 3 1 1 3 7 10 13 15 17 18 18 19 21 22 21 20 20 19 19 20 20 20 20 19 20 20 21
6 7 7 6 7 6 3 2 4 3 2 1 1 2 3 4 4 2 1 2 0 2 4 4 2 1 2 3 2 1 2 3 2 3 5 5 5 4 3 1 3 6 9 12 14 17 19 21 23 24 21 19 20 19 19 20 20 20 20 19 19 20 20
5 7 6 4 4 6 6 6 5 4 1 2 3 3 3 4 5 3 3 4 2 5 4 3 2 1 2 2 2 2 2 3 4 5 5 5 6 5 4 2 1 2 5 9 12 15 18 20 21 21 19 19 19 18 19 20 21 20 20 20 19 20 20
6 4 2 4 4 2 4 5 5 4 3 3 4 3 3 3 5 4 4 6 3 6 2 1 2 2 3 3 2 2 3 3 4 5 5 6 6 5 5 3 1 1 3 6 9 13 15 16 17 18 18 18 18 19 20 19 19 20 20 20 20 21 20
1 5 5 2 3 3 5 5 4 3 4 5 5 4 2 2 3 2 3 6 2 6 3 1 2 2 3 3 2 2 3 4 4 4 5 5 5 5 5 4 3 1 2 4 7 10 12 14 15 16 17 18 17 18 19 19 19 20 20 20 21 22 22
2 4 5 3 2 4 6 6 4 5 5 5 5 4 2 3 3 2 4 5 1 5 4 3 4 3 3 3 2 1 2 4 4 3 4 4 5 5 4 5 4 3 1 3 5 8 10 12 14 15 16 17 17 18 18 19 20 21 20 19 21 23 23
5 5 5 5 5 6 7 4 4 5 6 4 4 2 2 5 5 3 5 5 2 6 4 4 5 5 4 3 3 2 2 2 2 2 2 3 3 4 4 5 5 4 3 2 4 6 8 10 12 14 15 16 17 17 18 19 21 21 21 20 21 23 24
6 5 4 3 4 6 6 4 5 7 8 7 6 4 4 6 4 3 6 5 3 7 6 5 5 5 4 4 4 3 2 2 1 1 1 2 3 3 4 4 5 5 4 3 3 5 6 8 10 12 14 15 16 17 18 21 21 20 20 20 21 23 25
5 3 1 0 2 5 6 6 8 9 9 9 7 6 5 4 2 4 6 5 2 3 6 5 5 5 5 4 5 5 4 3 2 2 1 1 2 3 4 4 4 5 4 4 3 3 4 6 8 10 13 15 16 17 19 21 20 19 19 20 21 23 24
6 3 1 1 4 7 7 7 9 10 10 10 10 8 5 2 3 5 3 3 6 4 4 5 5 5 5 5 5 5 5 3 2 2 1 1 1 2 3 3 4 4 4 3 3 3 3 4 6 8 10 12 14 17 19 21 21 20 18 17 19 21 22
5 2 2 3 6 7 7 7 8 9 11 11 11 11 6 4 7 7 1 4 8 6 2 3 3 4 5 5 5 5 4 3 2 1 2 1 1 1 1 2 3 3 3 3 3 3 3 3 4 6 8 9 11 13 15 18 21 22 20 19 18 19 19
6 5 5 5 6 7 6 8 8 8 10 11 11 11 8 6 9 8 3 5 9 5 1 3 4 4 5 6 6 5 5 3 2 2 2 2 1 1 1 1 1 2 3 3 4 4 4 4 3 3 5 8 9 11 12 14 16 19 21 21 21 20 19
7 7 6 6 7 7 7 9 8 8 10 10 10 9 7 7 8 8 7 8 8 3 5 6 6 6 7 8 8 7 5 4 3 2 2 2 2 2 1 0 2 3 4 5 5 5 5 5 4 3 4 6 7 8 10 11 12 14 17 19 20 21 20
7 8 9 8 7 7 9 10 10 10 10 10 9 8 7 8 9 9 9 9 6 4 8 8 8 8 8 9 9 8 6 5 4 3 3 2 2 2 1 1 2 4 5 6 6 7 7 6 5 5 5 5 5 7 9 9 10 11 13 15 16 17 18
6 8 9 8 7 8 9 8 9 12 12 10 9 8 7 8 9 8 8 5 0 6 8 8 8 9 9 8 8 7 6 5 5 4 3 3 2 1 1 2 3 5 6 7 7 7 7 7 6 7 8 7 6 8 10 11 11 11 12 14 16 17 17
6 6 7 6 8 9 5 1 2 7 9 9 10 9 8 7 7 7 5 0 4 6 6 7 8 9 8 7 7 6 5 5 4 4 4 3 2 1 2 3 4 6 7 7 8 8 7 8 9 9 9 8 8 9 11 11 11 12 13 14 15 16 17
6 4 6 8 10 6 2 4 3 0 3 6 8 9 8 6 7 8 6 3 4 5 4 5 8 9 7 6 6 6 6 5 4 4 4 2 1 2 3 4 5 7 7 7 8 8 9 9 8 8 8 8 9 11 13 13 12 13 14 15 14 15 16
5 5 7 10 6 2 5 5 4 3 2 5 6 8 8 8 8 8 7 5 5 6 6 7 8 8 7 5 5 6 6 6 5 4 3 1 1 2 3 5 6 6 7 7 7 9 9 8 7 8 8 8 10 13 14 14 14 14 14 15 15 15 16
6 7 9 8 4 3 5 4 4 6 6 6 6 6 5 6 8 8 8 6 7 8 8 9 8 8 6 5 6 8 7 6 6 5 2 1 2 3 4 6 6 6 8 8 7 8 8 8 7 7 8 9 10 12 12 13 14 14 14 15 14 14 16
7 9 9 8 7 8 8 7 7 9 8 6 6 6 4 5 9 10 10 9 10 11 10 10 9 7 5 4 5 9 7 5 5 4 2 1 2 3 4 5 6 7 8 7 7 7 7 8 7 7 7 9 10 10 10 11 12 14 16 15 15 15 15
8 9 9 8 9 8 7 6 7 9 8 5 4 7 5 6 11 13 11 11 12 12 12 11 9 6 5 4 4 9 6 4 4 4 2 1 2 2 4 6 7 7 7 7 7 7 7 7 7 7 7 8 9 10 10 10 11 13 15 15 14 14 14
9 9 9 8 7 4 4 7 8 9 8 7 6 7 4 6 13 15 13 13 14 13 13 13 9 5 4 2 6 8 5 4 5 4 2 1 2 3 4 7 7 7 7 7 7 7 7 7 7 7 7 8 9 10 10 10 10 10 12 13 13 14 15
10 10 10 8 7 3 7 9 10 11 9 7 8 6 2 8 13 14 14 14 15 15 15 12 7 3 2 6 8 7 5 5 5 3 2 1 1 3 5 6 6 7 7 6 7 8 7 7 8 7 8 9 10 10 10 9 10 10 10 12 13 15 17
10 9 9 9 7 3 9 10 9 11 8 7 7 2 5 10 13 13 14 14 14 15 15 10 6 4 7 7 7 6 5 4 4 3 1 0 2 4 5 6 6 7 7 7 8 8 7 7 8 9 10 10 10 10 9 9 10 11 12 14 15 15 16
9 9 9 10 7 5 15 14 8 7 7 3 3 7 7 8 12 13 12 12 13 14 13 9 6 6 7 6 6 6 5 4 4 3 1 1 3 4 5 6 7 7 7 7 8 8 7 8 8 10 11 12 11 10 10 10 11 11 12 15 16 15 14
6 7 6 5 3 4 18 15 4 8 9 1 3 8 7 8 12 12 10 11 13 12 10 9 8 7 7 6 5 5 4 4 3 2 1 2 4 4 5 6 7 6 7 7 8 7 7 8 9 10 12 11 11 11 11 11 11 10 10 11 13 12 11
3 5 3 1 4 2 14 11 2 3 10 2 1 6 8 9 12 11 9 11 12 10 9 9 8 7 6 6 5 5 5 4 3 2 2 3 4 4 5 5 5 5 6 7 7 7 8 8 9 10 11 11 11 11 12 12 12 11 10 9 9 9 9
4 5 4 3 4 2 9 10 1 1 6 4 1 4 8 10 11 10 10 11 12 11 10 9 8 7 7 6 6 5 5 4 3 2 3 3 3 3 4 5 5 5 6 7 7 7 7 9 9 9 9 10 10 11 11 11 11 10 9 8 7 7 7
3 2 1 3 4 5 4 8 6 3 5 6 4 3 7 11 12 10 10 11 12 11 10 8 7 7 7 6 6 6 5 5 4 4 4 4 4 3 3 4 4 4 5 5 6 6 7 8 9 8 8 9 9 10 11 11 10 9 7 5 4 4 5
6 4 5 9 10 7 5 7 8 5 5 8 7 6 9 12 12 11 11 12 11 10 9 8 7 7 7 6 6 6 6 5 4 5 5 4 4 3 3 3 3 3 4 4 5 6 6 8 8 7 8 9 10 11 12 13 12 10 9 7 5 4 4
8 8 6 10 11 9 6 5 6 6 5 7 9 10 11 13 14 13 13 12 10 9 8 8 8 7 7 6 6 6 6 5 5 6 5 4 3 2 2 3 2 2 3 4 5 5 5 7 7 7 8 10 11 11 12 13 13 10 8 6 5 4 3
7 3 3 6 5 5 4 5 3 6 7 7 10 11 12 13 14 15 14 13 11 10 8 8 7 7 6 6 7 6 5 5 6 6 4 3 2 1 2 1 1 2 3 4 5 4 5 6 6 7 8 10 11 12 13 12 10 9 8 7 7 7 5
3 2 6 8 6 4 5 9 9 5 7 9 11 12 12 13 14 14 13 12 11 10 9 7 7 6 6 6 7 6 6 6 6 5 4 3 2 1 1 0 1 2 3 5 5 4 4 5 5 6 8 9 10 12 13 12 10 9 9 10 11 11 10
1 1 4 8 9 7 9 11 11 7 6 9 12 13 13 14 14 13 12 11 10 9 8 7 7 6 6 6 7 7 7 7 6 5 5 5 4 2 1 0 1 2 3 4 4 4 4 5 5 6 7 8 10 11 11 11 11 11 11 13 14 13 14
3 1 4 8 10 10 11 11 9 7 5 7 10 12 14 15 14 13 12 10 9 8 7 7 7 6 6 6 7 8 8 7 7 6 5 5 5 3 3 2 1 1 2 2 3 2 3 5 6 7 8 9 10 11 11 10 10 11 13 15 16 16 18
Wind_Direction
181 222 207 207 254 241 159 202 218 155 4 296 278 273 287 287 275 242 199 253 252 165 196 193 197 192 159 158 164 107 59 44 68 67 71 144 222 214 216 219 219 218 213 211 211 210 209 206 203 202 200 205 212 213 216 219 215 212 213 215 217 215 214
146 222 200 185 239 264 218 206 162 109 53 276 276 270 238 250 263 259 271 286 292 271 234 173 200 226 194 180 166 121 109 47 58 66 65 55 42 217 223 220 220 220 214 211 210 209 210 208 204 205 206 210 220 224 222 219 216 212 210 211 213 213 214
133 176 202 177 185 235 275 305 137 170 226 217 232 274 277 272 284 286 109 313 306 299 358 125 194 231 209 182 156 134 121 75 42 55 66 51 35 36 259 227 222 221 216 214 211 208 208 205 207 216 219 219 227 232 226 217 214 213 211 209 208 210 213
141 180 208 198 175 185 233 210 180 218 275 278 252 279 293 294 303 327 334 295 241 74 18 6 358 251 197 170 142 96 62 66 44 35 48 42 34 29 16 333 235 224 219 217 211 207 206 207 217 228 228 221 224 230 228 220 216 213 213 212 211 211 212
181 198 208 235 197 174 194 207 201 203 213 259 258 247 269 293 304 320 313 300 61 73 28 353 27 121 142 124 114 94 58 57 51 38 32 34 36 27 21 21 311 238 220 218 210 209 214 220 230 236 229 220 221 227 226 222 221 217 214 214 214 214 214
200 173 93 335 325 261 234 233 222 212 204 232 254 235 209 255 292 312 315 308 27 81 65 17 76 121 131 126 134 113 84 71 59 47 35 33 34 27 23 19 356 242 217 216 211 215 221 224 229 231 224 218 220 224 223 221 222 220 216 215 215 216 217
155 80 71 354 314 289 268 268 261 246 231 235 256 269 219 209 259 294 295 294 29 94 102 97 99 116 129 135 149 130 103 92 77 55 42 35 29 25 20 11 3 320 225 217 218 224 225 223 225 226 223 219 219 222 221 218 219 220 218 216 216 221 226
131 105 110 144 198 230 238 236 235 253 259 257 274 302 317 263 245 233 261 271 109 105 118 125 127 139 155 163 167 152 113 99 90 68 46 29 22 20 15 9 4 355 303 242 235 233 229 229 228 227 226 223 222 222 220 220 223 228 230 225 222 228 235
193 186 175 169 183 214 235 224 196 236 253 247 258 273 277 266 258 251 271 283 90 114 136 145 151 167 184 183 169 152 118 102 96 77 49 19 14 15 16 13 8 8 5 305 263 249 241 238 234 231 228 226 225 223 221 223 229 235 239 236 231 234 240
217 217 211 199 201 205 219 210 189 219 226 211 225 246 240 248 240 218 255 283 73 120 150 164 166 178 200 193 172 171 166 151 144 111 59 21 17 20 24 22 17 15 7 337 295 270 256 248 244 239 233 228 226 224 225 230 236 240 242 240 239 241 243
248 251 176 77 274 224 215 211 201 212 217 210 222 247 254 255 237 222 236 261 290 153 153 169 181 183 201 198 181 188 193 185 175 147 102 52 37 29 31 31 28 21 2 344 329 304 274 257 252 249 243 236 231 229 230 233 235 237 241 242 242 242 244
251 285 118 162 249 251 251 235 212 208 207 207 219 238 258 278 257 258 225 205 255 253 148 163 182 181 199 201 187 189 191 182 161 127 116 104 69 41 39 39 33 25 5 345 336 330 309 267 252 249 249 243 237 236 237 238 236 235 236 237 240 242 243
227 242 219 217 237 251 259 245 224 210 203 209 224 236 242 237 253 276 45 172 236 253 180 155 153 168 191 182 167 168 164 159 153 138 150 153 134 75 58 53 33 12 351 339 337 332 317 286 256 244 243 241 239 239 239 240 241 240 236 232 234 238 239
207 193 200 217 229 234 237 234 227 214 210 217 228 236 236 231 249 269 270 234 245 250 167 120 115 139 159 149 148 158 159 163 172 177 186 184 185 183 133 49 352 328 320 326 333 328 320 313 295 264 248 241 239 240 239 238 239 239 238 237 237 236 237
207 191 192 205 220 228 230 226 221 219 224 226 229 239 241 230 243 254 250 251 252 215 125 124 132 141 153 157 161 163 162 171 190 211 219 205 198 198 194 295 305 298 296 302 308 311 313 313 306 291 266 251 244 241 243 244 241 238 237 239 240 239 238
219 195 198 206 210 229 240 234 223 219 226 232 233 237 237 237 251 250 239 250 252 162 136 142 150 159 171 173 167 164 164 174 197 221 233 229 224 220 228 301 300 286 284 291 296 297 300 303 300 290 274 262 255 249 246 245 244 242 238 235 236 236 237
229 194 201 211 209 227 240 236 229 225 225 235 241 240 234 236 252 258 249 256 205 130 149 162 163 172 183 179 169 168 168 177 199 222 238 251 252 244 274 301 297 293 291 292 294 295 297 294 286 278 270 261 253 247 241 236 234 236 239 238 235 232 234
234 183 181 210 222 232 239 201 241 238 232 234 240 246 244 226 230 256 271 226 111 140 175 182 172 172 175 169 164 163 164 176 198 218 232 251 268 276 296 310 301 295 290 286 288 291 285 276 273 277 277 272 267 261 254 250 243 236 235 238 239 237 237
241 178 179 223 231 229 160 94 87 234 245 241 245 256 259 237 223 235 239 204 159 167 176 165 159 157 154 152 158 169 182 189 192 208 225 242 281 304 311 306 298 293 291 291 290 282 276 277 282 288 285 277 275 274 271 270 265 252 240 236 236 238 239
235 204 211 231 236 162 124 119 110 121 191 221 234 249 246 230 222 217 211 192 157 154 150 141 142 144 147 162 179 194 211 207 191 195 211 234 289 321 313 297 296 298 296 297 294 287 288 295 298 294 287 282 282 281 280 278 275 268 257 247 242 240 239
228 231 228 230 245 211 188 188 182 188 203 209 223 247 235 205 200 196 188 169 153 157 156 145 143 145 158 192 202 203 219 217 190 190 194 214 294 316 304 292 298 300 294 295 301 301 302 304 301 296 291 290 289 286 284 282 278 273 268 261 256 251 246
218 240 240 229 241 241 223 216 205 205 217 220 228 254 247 184 185 188 182 169 163 166 162 154 151 158 189 233 194 178 200 212 188 187 193 206 291 298 294 298 299 294 293 300 308 310 307 305 303 299 297 297 295 291 286 285 283 278 273 269 265 261 255
214 234 243 233 240 244 220 198 189 194 203 196 210 251 245 179 176 183 180 172 171 171 166 161 161 180 237 275 134 146 176 201 177 173 173 194 284 296 305 311 306 299 303 310 313 314 311 310 309 305 302 300 295 292 289 284 283 281 277 274 269 263 260
219 223 238 239 244 238 158 156 171 172 167 167 200 247 251 162 169 180 179 174 173 170 164 166 178 215 266 357 100 130 154 162 158 162 158 188 271 303 308 309 310 313 318 316 315 319 317 315 317 312 308 306 301 297 294 284 280 278 276 275 271 267 265
223 219 234 245 246 194 127 144 160 148 143 180 221 245 191 154 170 179 180 176 170 166 167 177 195 203 108 95 107 127 141 140 149 162 145 150 273 298 305 312 321 322 319 317 318 322 321 320 321 320 317 317 313 307 301 292 284 279 276 273 270 269 268
229 227 234 241 244 172 129 138 148 148 169 223 234 186 139 164 172 173 178 177 167 166 175 185 187 137 117 120 121 125 134 138 145 159 143 146 274 287 307 321 329 323 320 322 321 321 323 324 327 331 330 326 322 314 306 299 290 284 280 273 268 266 266
231 234 230 237 251 155 138 139 145 183 214 249 164 149 144 162 170 169 173 173 165 169 177 175 161 144 136 142 138 132 141 145 146 161 179 264 273 291 314 321 322 323 322 322 321 322 327 328 331 336 333 328 325 318 310 302 295 291 284 274 267 263 262
226 234 219 230 301 142 159 162 171 208 209 55 102 168 156 148 166 168 165 166 164 168 173 165 161 162 155 154 153 147 150 152 154 173 227 264 275 298 317 316 318 323 322 323 326 328 329 331 334 334 329 325 326 324 320 314 307 302 296 280 263 253 257
257 270 276 314 4 141 184 190 0 214 201 188 40 189 168 153 167 168 161 161 160 162 167 165 168 175 169 165 164 157 155 158 161 185 233 253 274 306 315 312 319 326 322 325 330 331 335 339 338 333 330 332 334 332 328 323 315 310 306 289 261 243 248
298 291 294 302 351 343 209 212 291 345 197 178 104 188 175 161 161 162 160 160 159 162 168 170 176 182 177 170 170 165 162 164 172 201 242 260 280 306 305 304 320 330 325 326 330 334 344 349 346 341 343 348 348 345 342 336 327 317 309 292 268 246 242
287 272 355 356 347 345 275 233 233 238 198 177 148 143 161 156 152 151 153 157 163 169 174 177 181 181 179 177 177 175 171 170 188 216 239 262 279 292 297 303 321 330 326 329 333 337 349 357 354 350 353 360 1 360 0 359 354 350 344 331 302 262 253
239 246 304 322 312 301 282 239 225 222 203 186 166 140 144 149 149 151 153 158 166 174 181 185 181 175 179 183 181 178 174 176 198 220 235 258 276 290 305 312 325 333 331 337 341 344 354 3 1 355 358 8 10 10 13 15 14 11 6 0 351 325 295
238 243 279 315 309 289 276 250 222 213 201 181 166 153 149 151 155 161 165 167 171 176 182 184 176 172 178 184 182 175 171 181 205 218 230 249 259 276 298 311 328 340 344 347 346 348 356 2 1 1 9 16 17 17 20 20 18 15 12 10 11 6 343
238 246 0 2 326 284 311 355 319 232 216 193 169 158 154 157 163 169 171 172 174 178 182 179 173 174 183 191 188 177 169 187 206 210 216 222 217 241 280 304 334 349 3 2 349 346 0 4 2 8 21 28 29 30 31 28 25 29 37 47 57 64 71
239 39 22 3 337 305 332 353 346 298 236 205 181 169 165 166 168 171 173 173 175 182 188 182 171 175 191 198 187 173 174 195 202 198 193 186 177 206 249 346 21 17 24 11 348 341 9 21 19 22 31 37 38 39 41 41 42 51 65 77 86 90 95
246 61 11 350 339 328 324 330 335 323 266 218 196 186 177 170 168 168 168 167 171 181 190 188 178 179 193 194 179 171 182 196 195 185 180 168 159 173 202 146 23 22 42 29 354 345 24 47 48 43 44 49 52 54 55 55 56 63 72 83 91 97 102
261 303 351 338 328 326 328 329 332 327 284 232 208 192 180 172 169 168 164 162 167 175 181 190 195 194 188 179 173 176 186 191 188 190 188 169 157 163 177 168 115 39 57 47 16 12 54 71 70 61 54 56 62 69 74 73 71 73 76 83 92 99 102